Time,TemperatureF,DewpointF,PressureIn,WindDirection,WindDirectionDegrees,WindSpeedMPH,WindSpeedGustMPH,Humidity,HourlyPrecipIn,Conditions,Clouds,dailyrainin,SoftwareType,DateUTC
2013-10-21 00:00:00,57.2,46.7,29.86,SW,218,0.0,1.0,68,0.00,,,0.00,Wunderground v.1.15,2013-10-21 05:00:00,
2013-10-21 00:05:00,57.4,46.5,29.87,WNW,288,1.0,1.0,67,0.00,,,0.00,Wunderground v.1.15,2013-10-21 05:05:00,
2013-10-21 00:10:00,57.5,47.0,29.87,SW,214,1.0,1.0,68,0.00,,,0.00,Wunderground v.1.15,2013-10-21 05:10:00,
2013-10-21 00:15:00,57.5,47.0,29.86,SW,225,1.0,1.0,68,0.00,,,0.00,Wunderground v.1.15,2013-10-21 05:15:00,
2013-10-21 00:20:00,57.3,46.8,29.86,SW,227,1.0,1.0,68,0.00,,,0.00,Wunderground v.1.15,2013-10-21 05:20:00,
2013-10-21 00:25:00,57.2,47.1,29.86,SSW,210,1.0,1.0,69,0.00,,,0.00,Wunderground v.1.15,2013-10-21 05:25:00,
2013-10-21 00:30:00,57.0,46.9,29.86,SW,235,1.0,1.0,69,0.00,,,0.00,Wunderground v.1.15,2013-10-21 05:30:00,
2013-10-21 00:35:00,57.0,47.3,29.86,SW,226,1.0,1.0,70,0.00,,,0.00,Wunderground v.1.15,2013-10-21 05:35:00,
2013-10-21 00:40:00,56.8,47.1,29.86,SW,226,0.0,0.0,70,0.00,,,0.00,Wunderground v.1.15,2013-10-21 05:40:00,
2013-10-21 00:45:00,56.7,47.0,29.86,NNW,339,0.0,0.0,70,0.00,,,0.00,Wunderground v.1.15,2013-10-21 05:45:00,
2013-10-21 00:50:00,56.6,47.3,29.86,NNW,336,0.0,0.0,71,0.00,,,0.00,Wunderground v.1.15,2013-10-21 05:50:00,
2013-10-21 00:55:00,56.4,47.5,29.86,NNW,327,0.0,0.0,72,0.00,,,0.00,Wunderground v.1.15,2013-10-21 05:55:00,
2013-10-21 01:00:00,56.1,47.6,29.86,West,274,0.0,0.0,73,0.00,,,0.00,Wunderground v.1.15,2013-10-21 06:00:00,
2013-10-21 01:05:00,55.9,47.4,29.86,West,275,0.0,1.0,73,0.00,,,0.00,Wunderground v.1.15,2013-10-21 06:05:00,
2013-10-21 01:10:00,55.8,47.6,29.86,WSW,255,0.0,0.0,74,0.00,,,0.00,Wunderground v.1.15,2013-10-21 06:10:00,
2013-10-21 01:15:00,55.7,47.5,29.86,North,354,1.0,1.0,74,0.00,,,0.00,Wunderground v.1.15,2013-10-21 06:15:00,
2013-10-21 01:20:00,55.8,47.6,29.87,West,270,1.0,1.0,74,0.00,,,0.00,Wunderground v.1.15,2013-10-21 06:20:00,
2013-10-21 01:25:00,55.9,48.1,29.87,SSW,198,2.0,2.0,75,0.00,,,0.00,Wunderground v.1.15,2013-10-21 06:25:00,
2013-10-21 01:30:00,55.8,48.3,29.87,NW,320,2.0,2.0,76,0.00,,,0.00,Wunderground v.1.15,2013-10-21 06:30:00,
2013-10-21 01:35:00,55.8,48.3,29.87,NNW,328,1.0,2.0,76,0.00,,,0.00,Wunderground v.1.15,2013-10-21 06:35:00,
2013-10-21 01:40:00,55.8,48.3,29.88,NE,37,2.0,2.0,76,0.00,,,0.00,Wunderground v.1.15,2013-10-21 06:40:00,
2013-10-21 01:45:00,55.9,48.4,29.88,WNW,299,2.0,3.0,76,0.00,,,0.00,Wunderground v.1.15,2013-10-21 06:45:00,
2013-10-21 01:50:00,56.0,48.2,29.88,NNE,15,3.0,3.0,75,0.00,,,0.00,Wunderground v.1.15,2013-10-21 06:50:00,
2013-10-21 01:55:00,55.9,48.1,29.88,WNW,302,3.0,3.0,75,0.00,,,0.00,Wunderground v.1.15,2013-10-21 06:55:00,
2013-10-21 02:00:00,55.8,48.0,29.88,West,279,3.0,3.0,75,0.00,,,0.00,Wunderground v.1.15,2013-10-21 07:00:00,
2013-10-21 02:05:00,55.5,48.1,29.88,NW,311,3.0,4.0,76,0.00,,,0.00,Wunderground v.1.15,2013-10-21 07:05:00,
2013-10-21 02:10:00,55.2,48.1,29.88,West,277,3.0,3.0,77,0.00,,,0.00,Wunderground v.1.15,2013-10-21 07:10:00,
2013-10-21 02:15:00,54.8,47.7,29.88,NW,318,2.0,3.0,77,0.00,,,0.00,Wunderground v.1.15,2013-10-21 07:15:00,
2013-10-21 02:20:00,54.6,47.9,29.88,WNW,300,2.0,2.0,78,0.00,,,0.00,Wunderground v.1.15,2013-10-21 07:20:00,
2013-10-21 02:25:00,54.4,47.7,29.88,NW,320,1.0,2.0,78,0.00,,,0.00,Wunderground v.1.15,2013-10-21 07:25:00,
2013-10-21 02:30:00,54.1,47.7,29.88,NNW,333,1.0,1.0,79,0.00,,,0.00,Wunderground v.1.15,2013-10-21 07:30:00,
2013-10-21 02:35:00,53.8,47.8,29.89,NW,316,1.0,1.0,80,0.00,,,0.00,Wunderground v.1.15,2013-10-21 07:35:00,
2013-10-21 02:40:00,53.5,47.5,29.89,NW,316,1.0,1.0,80,0.00,,,0.00,Wunderground v.1.15,2013-10-21 07:40:00,
2013-10-21 02:45:00,53.2,47.2,29.89,WNW,284,1.0,1.0,80,0.00,,,0.00,Wunderground v.1.15,2013-10-21 07:45:00,
2013-10-21 02:50:00,53.0,47.3,29.89,WNW,293,1.0,1.0,81,0.00,,,0.00,Wunderground v.1.15,2013-10-21 07:50:00,
2013-10-21 02:55:00,52.8,46.8,29.89,West,271,1.0,2.0,80,0.00,,,0.00,Wunderground v.1.15,2013-10-21 07:55:00,
2013-10-21 03:00:00,52.7,46.7,29.89,WNW,293,1.0,1.0,80,0.00,,,0.00,Wunderground v.1.15,2013-10-21 08:00:00,
2013-10-21 03:05:00,52.6,46.6,29.89,NNW,328,1.0,1.0,80,0.00,,,0.00,Wunderground v.1.15,2013-10-21 08:05:00,
2013-10-21 03:10:00,52.5,46.5,29.89,NW,312,1.0,1.0,80,0.00,,,0.00,Wunderground v.1.15,2013-10-21 08:10:00,
2013-10-21 03:15:00,52.4,46.1,29.89,WNW,295,1.0,4.0,79,0.00,,,0.00,Wunderground v.1.15,2013-10-21 08:15:00,
2013-10-21 03:20:00,52.3,46.0,29.89,NNE,27,2.0,2.0,79,0.00,,,0.00,Wunderground v.1.15,2013-10-21 08:20:00,
2013-10-21 03:30:00,52.2,45.5,29.90,NNW,333,2.0,2.0,78,0.00,,,0.00,Wunderground v.1.15,2013-10-21 08:30:00,
2013-10-21 03:35:00,52.1,45.4,29.90,West,270,2.0,3.0,78,0.00,,,0.00,Wunderground v.1.15,2013-10-21 08:35:00,
2013-10-21 03:40:00,52.0,45.7,29.90,WNW,289,2.0,2.0,79,0.00,,,0.00,Wunderground v.1.15,2013-10-21 08:40:00,
2013-10-21 03:45:00,51.9,45.6,29.90,NW,309,2.0,2.0,79,0.00,,,0.00,Wunderground v.1.15,2013-10-21 08:45:00,
2013-10-21 03:50:00,51.8,45.5,29.90,WSW,253,1.0,1.0,79,0.00,,,0.00,Wunderground v.1.15,2013-10-21 08:50:00,
2013-10-21 03:55:00,51.7,45.7,29.90,WNW,283,1.0,1.0,80,0.00,,,0.00,Wunderground v.1.15,2013-10-21 08:55:00,
2013-10-21 04:00:00,51.6,45.6,29.90,NNW,327,2.0,2.0,80,0.00,,,0.00,Wunderground v.1.15,2013-10-21 09:00:00,
2013-10-21 04:10:00,51.4,45.4,29.91,WNW,296,2.0,2.0,80,0.00,,,0.00,Wunderground v.1.15,2013-10-21 09:10:00,
2013-10-21 04:15:00,51.3,45.3,29.91,WNW,290,2.0,2.0,80,0.00,,,0.00,Wunderground v.1.15,2013-10-21 09:15:00,
2013-10-21 04:20:00,51.2,45.6,29.91,NW,307,2.0,2.0,81,0.00,,,0.00,Wunderground v.1.15,2013-10-21 09:20:00,
2013-10-21 04:25:00,51.1,45.1,29.92,NW,315,3.0,3.0,80,0.00,,,0.00,Wunderground v.1.15,2013-10-21 09:25:00,
2013-10-21 04:30:00,50.9,44.9,29.92,WNW,285,2.0,6.0,80,0.00,,,0.00,Wunderground v.1.15,2013-10-21 09:30:00,
2013-10-21 04:35:00,50.7,44.8,29.92,West,276,3.0,6.0,80,0.00,,,0.00,Wunderground v.1.15,2013-10-21 09:35:00,
2013-10-21 04:40:00,50.6,45.0,29.92,WNW,285,4.0,4.0,81,0.00,,,0.00,Wunderground v.1.15,2013-10-21 09:40:00,
2013-10-21 04:45:00,50.4,44.8,29.92,NNW,340,3.0,4.0,81,0.00,,,0.00,Wunderground v.1.15,2013-10-21 09:45:00,
2013-10-21 04:50:00,50.3,44.7,29.92,NNW,328,3.0,4.0,81,0.00,,,0.00,Wunderground v.1.15,2013-10-21 09:50:00,
2013-10-21 04:55:00,50.0,44.4,29.92,NNE,18,2.0,4.0,81,0.00,,,0.00,Wunderground v.1.15,2013-10-21 09:55:00,
2013-10-21 05:00:00,49.7,44.1,29.92,NNW,333,2.0,3.0,81,0.00,,,0.00,Wunderground v.1.15,2013-10-21 10:00:00,
2013-10-21 05:05:00,49.5,44.2,29.92,West,278,1.0,3.0,82,0.00,,,0.00,Wunderground v.1.15,2013-10-21 10:05:00,
2013-10-21 05:10:00,49.1,43.8,29.93,NNW,345,2.0,5.0,82,0.00,,,0.00,Wunderground v.1.15,2013-10-21 10:10:00,
2013-10-21 05:15:00,48.6,43.0,29.92,NW,316,3.0,5.0,81,0.00,,,0.00,Wunderground v.1.15,2013-10-21 10:15:00,
2013-10-21 05:20:00,48.1,42.5,29.93,NW,321,3.0,3.0,81,0.00,,,0.00,Wunderground v.1.15,2013-10-21 10:20:00,
2013-10-21 05:25:00,47.6,42.4,29.93,NW,318,3.0,3.0,82,0.00,,,0.00,Wunderground v.1.15,2013-10-21 10:25:00,
2013-10-21 05:30:00,47.3,42.1,29.93,WNW,289,3.0,3.0,82,0.00,,,0.00,Wunderground v.1.15,2013-10-21 10:30:00,
2013-10-21 05:35:00,47.0,42.1,29.93,West,278,2.0,3.0,83,0.00,,,0.00,Wunderground v.1.15,2013-10-21 10:35:00,
2013-10-21 05:40:00,46.7,42.1,29.94,SW,231,1.0,1.0,84,0.00,,,0.00,Wunderground v.1.15,2013-10-21 10:40:00,
2013-10-21 05:45:00,46.4,41.8,29.94,NW,318,1.0,1.0,84,0.00,,,0.00,Wunderground v.1.15,2013-10-21 10:45:00,
2013-10-21 05:50:00,46.1,41.8,29.94,NNW,328,1.0,1.0,85,0.00,,,0.00,Wunderground v.1.15,2013-10-21 10:50:00,
2013-10-21 05:55:00,45.8,41.5,29.94,WNW,290,1.0,4.0,85,0.00,,,0.00,Wunderground v.1.15,2013-10-21 10:55:00,
2013-10-21 06:00:00,45.5,41.3,29.95,NW,318,1.0,2.0,85,0.00,,,0.00,Wunderground v.1.15,2013-10-21 11:00:00,
2013-10-21 06:05:00,45.1,41.2,29.95,WNW,300,1.0,2.0,86,0.00,,,0.00,Wunderground v.1.15,2013-10-21 11:05:00,
2013-10-21 06:10:00,44.7,40.8,29.95,NNW,328,2.0,2.0,86,0.00,,,0.00,Wunderground v.1.15,2013-10-21 11:10:00,
2013-10-21 06:15:00,44.3,40.4,29.95,NW,314,2.0,3.0,86,0.00,,,0.00,Wunderground v.1.15,2013-10-21 11:15:00,
2013-10-21 06:20:00,43.9,40.0,29.95,North,1,2.0,3.0,86,0.00,,,0.00,Wunderground v.1.15,2013-10-21 11:20:00,
2013-10-21 06:25:00,43.6,39.7,29.95,NW,307,2.0,3.0,86,0.00,,,0.00,Wunderground v.1.15,2013-10-21 11:25:00,
2013-10-21 06:30:00,43.3,39.4,29.96,NW,305,2.0,3.0,86,0.00,,,0.00,Wunderground v.1.15,2013-10-21 11:30:00,
2013-10-21 06:35:00,43.0,39.1,29.95,WNW,294,3.0,3.0,86,0.00,,,0.00,Wunderground v.1.15,2013-10-21 11:35:00,
2013-10-21 06:40:00,42.8,38.9,29.95,WNW,289,3.0,3.0,86,0.00,,,0.00,Wunderground v.1.15,2013-10-21 11:40:00,
2013-10-21 06:45:00,42.6,38.7,29.96,North,5,3.0,3.0,86,0.00,,,0.00,Wunderground v.1.15,2013-10-21 11:45:00,
2013-10-21 06:50:00,42.4,38.5,29.96,WNW,295,3.0,3.0,86,0.00,,,0.00,Wunderground v.1.15,2013-10-21 11:50:00,
2013-10-21 06:55:00,42.2,38.6,29.96,WNW,300,3.0,3.0,87,0.00,,,0.00,Wunderground v.1.15,2013-10-21 11:55:00,
2013-10-21 07:00:00,42.0,38.4,29.96,West,269,2.0,2.0,87,0.00,,,0.00,Wunderground v.1.15,2013-10-21 12:00:00,
2013-10-21 07:05:00,41.8,38.2,29.96,West,278,2.0,3.0,87,0.00,,,0.00,Wunderground v.1.15,2013-10-21 12:05:00,
2013-10-21 07:10:00,41.6,38.0,29.96,West,274,2.0,2.0,87,0.00,,,0.00,Wunderground v.1.15,2013-10-21 12:10:00,
2013-10-21 07:15:00,41.5,38.2,29.97,SW,228,2.0,3.0,88,0.00,,,0.00,Wunderground v.1.15,2013-10-21 12:15:00,
2013-10-21 07:20:00,41.3,38.0,29.97,NW,318,2.0,4.0,88,0.00,,,0.00,Wunderground v.1.15,2013-10-21 12:20:00,
2013-10-21 07:25:00,41.3,38.0,29.97,WNW,284,2.0,4.0,88,0.00,,,0.00,Wunderground v.1.15,2013-10-21 12:25:00,
2013-10-21 07:30:00,41.3,38.0,29.98,West,278,2.0,2.0,88,0.00,,,0.00,Wunderground v.1.15,2013-10-21 12:30:00,
2013-10-21 07:35:00,41.4,38.4,29.98,NNE,13,2.0,2.0,89,0.00,,,0.00,Wunderground v.1.15,2013-10-21 12:35:00,
2013-10-21 07:40:00,41.5,38.5,29.98,NW,316,2.0,2.0,89,0.00,,,0.00,Wunderground v.1.15,2013-10-21 12:40:00,
2013-10-21 07:45:00,41.7,38.4,29.99,NW,312,2.0,2.0,88,0.00,,,0.00,Wunderground v.1.15,2013-10-21 12:45:00,
2013-10-21 07:50:00,41.8,38.5,29.99,WNW,292,2.0,2.0,88,0.00,,,0.00,Wunderground v.1.15,2013-10-21 12:50:00,
2013-10-21 07:55:00,41.8,38.5,29.99,NW,309,2.0,3.0,88,0.00,,,0.00,Wunderground v.1.15,2013-10-21 12:55:00,
2013-10-21 08:00:00,41.9,38.3,30.00,WNW,284,2.0,2.0,87,0.00,,,0.00,Wunderground v.1.15,2013-10-21 13:00:00,
2013-10-21 08:05:00,42.0,38.1,30.00,NNW,338,2.0,2.0,86,0.00,,,0.00,Wunderground v.1.15,2013-10-21 13:05:00,
2013-10-21 08:10:00,42.1,37.6,30.00,NW,309,3.0,4.0,84,0.00,,,0.00,Wunderground v.1.15,2013-10-21 13:10:00,
2013-10-21 08:15:00,42.2,37.1,30.00,North,350,3.0,4.0,82,0.00,,,0.00,Wunderground v.1.15,2013-10-21 13:15:00,
2013-10-21 08:20:00,42.2,37.1,30.00,NNW,328,3.0,3.0,82,0.00,,,0.00,Wunderground v.1.15,2013-10-21 13:20:00,
2013-10-21 08:25:00,42.3,36.9,30.00,NNW,346,3.0,4.0,81,0.00,,,0.00,Wunderground v.1.15,2013-10-21 13:25:00,
2013-10-21 08:30:00,42.3,36.6,30.01,NW,314,3.0,3.0,80,0.00,,,0.00,Wunderground v.1.15,2013-10-21 13:30:00,
2013-10-21 08:35:00,42.4,36.3,30.01,NW,309,3.0,3.0,79,0.00,,,0.00,Wunderground v.1.15,2013-10-21 13:35:00,
2013-10-21 08:40:00,42.4,36.0,30.01,NW,319,3.0,3.0,78,0.00,,,0.00,Wunderground v.1.15,2013-10-21 13:40:00,
2013-10-21 08:45:00,42.4,35.7,30.01,NW,323,4.0,4.0,77,0.00,,,0.00,Wunderground v.1.15,2013-10-21 13:45:00,
2013-10-21 08:50:00,42.4,35.7,30.00,NW,314,3.0,3.0,77,0.00,,,0.00,Wunderground v.1.15,2013-10-21 13:50:00,
2013-10-21 08:55:00,42.4,35.7,30.01,NNW,338,3.0,3.0,77,0.00,,,0.00,Wunderground v.1.15,2013-10-21 13:55:00,
2013-10-21 09:00:00,42.5,35.8,30.01,NNE,20,3.0,4.0,77,0.00,,,0.00,Wunderground v.1.15,2013-10-21 14:00:00,
2013-10-21 09:10:00,42.3,35.3,30.01,WNW,295,4.0,4.0,76,0.00,,,0.00,Wunderground v.1.15,2013-10-21 14:10:00,
2013-10-21 09:15:00,42.2,35.5,30.01,NW,316,4.0,8.0,77,0.00,,,0.00,Wunderground v.1.15,2013-10-21 14:15:00,
2013-10-21 09:20:00,42.3,35.6,30.01,West,280,3.0,3.0,77,0.00,,,0.00,Wunderground v.1.15,2013-10-21 14:20:00,
2013-10-21 09:30:00,42.6,34.9,30.01,SW,224,4.0,4.0,74,0.00,,,0.00,Wunderground v.1.15,2013-10-21 14:30:00,
2013-10-21 09:35:00,42.6,34.2,30.01,SW,229,5.0,6.0,72,0.00,,,0.00,Wunderground v.1.15,2013-10-21 14:35:00,
2013-10-21 09:40:00,42.7,33.9,30.01,NW,304,5.0,5.0,71,0.00,,,0.00,Wunderground v.1.15,2013-10-21 14:40:00,
2013-10-21 09:45:00,42.9,34.5,30.01,WSW,243,5.0,7.0,72,0.00,,,0.00,Wunderground v.1.15,2013-10-21 14:45:00,
2013-10-21 09:50:00,43.0,34.2,30.01,WNW,297,5.0,6.0,71,0.00,,,0.00,Wunderground v.1.15,2013-10-21 14:50:00,
2013-10-21 09:55:00,43.0,34.2,30.02,North,352,5.0,7.0,71,0.00,,,0.00,Wunderground v.1.15,2013-10-21 14:55:00,
2013-10-21 10:00:00,43.2,34.4,30.02,NW,312,4.0,4.0,71,0.00,,,0.00,Wunderground v.1.15,2013-10-21 15:00:00,
2013-10-21 10:05:00,43.8,34.6,30.02,NW,318,3.0,4.0,70,0.00,,,0.00,Wunderground v.1.15,2013-10-21 15:05:00,
2013-10-21 10:15:00,44.1,34.6,30.02,NNE,33,4.0,6.0,69,0.00,,,0.00,Wunderground v.1.15,2013-10-21 15:15:00,
2013-10-21 10:20:00,44.0,33.7,30.02,NNW,335,4.0,6.0,67,0.00,,,0.00,Wunderground v.1.15,2013-10-21 15:20:00,
2013-10-21 10:25:00,43.8,33.9,30.01,NNW,328,4.0,6.0,68,0.00,,,0.00,Wunderground v.1.15,2013-10-21 15:25:00,
2013-10-21 10:30:00,43.7,33.8,30.01,NW,314,4.0,4.0,68,0.00,,,0.00,Wunderground v.1.15,2013-10-21 15:30:00,
2013-10-21 10:35:00,43.8,33.9,30.01,North,352,3.0,4.0,68,0.00,,,0.00,Wunderground v.1.15,2013-10-21 15:35:00,
2013-10-21 10:40:00,43.9,34.0,30.01,West,277,3.0,3.0,68,0.00,,,0.00,Wunderground v.1.15,2013-10-21 15:40:00,
2013-10-21 10:45:00,43.9,33.3,30.01,West,280,3.0,3.0,66,0.00,,,0.00,Wunderground v.1.15,2013-10-21 15:45:00,
2013-10-21 10:50:00,43.8,33.6,30.02,NNW,328,3.0,6.0,67,0.00,,,0.00,Wunderground v.1.15,2013-10-21 15:50:00,
2013-10-21 10:55:00,43.7,33.5,30.02,North,349,4.0,6.0,67,0.00,,,0.00,Wunderground v.1.15,2013-10-21 15:55:00,
2013-10-21 11:00:00,43.8,33.6,30.02,NNW,337,4.0,4.0,67,0.00,,,0.00,Wunderground v.1.15,2013-10-21 16:00:00,
2013-10-21 11:05:00,43.8,33.6,30.01,NW,314,4.0,4.0,67,0.00,,,0.00,Wunderground v.1.15,2013-10-21 16:05:00,
2013-10-21 11:10:00,44.0,34.1,30.01,NNW,342,4.0,6.0,68,0.00,,,0.00,Wunderground v.1.15,2013-10-21 16:10:00,
2013-10-21 11:15:00,44.1,34.2,30.02,NW,314,4.0,6.0,68,0.00,,,0.00,Wunderground v.1.15,2013-10-21 16:15:00,
2013-10-21 11:20:00,44.4,34.5,30.02,WSW,245,4.0,4.0,68,0.00,,,0.00,Wunderground v.1.15,2013-10-21 16:20:00,
2013-10-21 11:25:00,44.7,34.4,30.02,WNW,287,4.0,6.0,67,0.00,,,0.00,Wunderground v.1.15,2013-10-21 16:25:00,
2013-10-21 11:30:00,45.1,34.8,30.02,NW,306,4.0,7.0,67,0.00,,,0.00,Wunderground v.1.15,2013-10-21 16:30:00,
2013-10-21 11:35:00,45.4,34.7,30.01,WSW,257,4.0,7.0,66,0.00,,,0.00,Wunderground v.1.15,2013-10-21 16:35:00,
2013-10-21 11:40:00,45.8,34.3,30.01,SSE,160,4.0,4.0,64,0.00,,,0.00,Wunderground v.1.15,2013-10-21 16:40:00,
2013-10-21 11:45:00,46.1,35.0,30.01,West,275,3.0,4.0,65,0.00,,,0.00,Wunderground v.1.15,2013-10-21 16:45:00,
2013-10-21 11:50:00,46.7,34.4,30.02,WNW,302,4.0,4.0,62,0.00,,,0.00,Wunderground v.1.15,2013-10-21 16:50:00,
2013-10-21 11:55:00,46.6,34.3,30.02,NW,310,5.0,5.0,62,0.00,,,0.00,Wunderground v.1.15,2013-10-21 16:55:00,
2013-10-21 12:00:00,46.6,34.7,30.02,NW,309,4.0,6.0,63,0.00,,,0.00,Wunderground v.1.15,2013-10-21 17:00:00,
2013-10-21 12:10:00,47.7,34.5,30.02,NW,320,4.0,14.0,60,0.00,,,0.00,Wunderground v.1.15,2013-10-21 17:10:00,
2013-10-21 12:15:00,47.2,33.6,30.02,WSW,255,4.0,14.0,59,0.00,,,0.00,Wunderground v.1.15,2013-10-21 17:15:00,
2013-10-21 12:20:00,46.7,33.5,30.02,WNW,296,5.0,5.0,60,0.00,,,0.00,Wunderground v.1.15,2013-10-21 17:20:00,
2013-10-21 12:25:00,46.5,33.4,30.02,NNW,328,5.0,7.0,60,0.00,,,0.00,Wunderground v.1.15,2013-10-21 17:25:00,
2013-10-21 12:30:00,46.3,33.2,30.02,NW,309,5.0,9.0,60,0.00,,,0.00,Wunderground v.1.15,2013-10-21 17:30:00,
2013-10-21 12:35:00,45.9,32.8,30.01,North,358,5.0,9.0,60,0.00,,,0.00,Wunderground v.1.15,2013-10-21 17:35:00,
2013-10-21 12:40:00,46.5,33.4,30.01,NNW,333,4.0,4.0,60,0.00,,,0.00,Wunderground v.1.15,2013-10-21 17:40:00,
2013-10-21 12:45:00,46.5,32.9,30.01,NW,304,5.0,6.0,59,0.00,,,0.00,Wunderground v.1.15,2013-10-21 17:45:00,
2013-10-21 12:50:00,46.7,33.5,30.00,NW,307,4.0,4.0,60,0.00,,,0.00,Wunderground v.1.15,2013-10-21 17:50:00,
2013-10-21 12:55:00,46.9,32.4,30.00,NW,321,4.0,6.0,57,0.00,,,0.00,Wunderground v.1.15,2013-10-21 17:55:00,
2013-10-21 13:00:00,46.6,31.7,30.00,WSW,239,5.0,5.0,56,0.00,,,0.00,Wunderground v.1.15,2013-10-21 18:00:00,
2013-10-21 13:10:00,46.8,31.9,30.01,SW,235,5.0,8.0,56,0.00,,,0.00,Wunderground v.1.15,2013-10-21 18:10:00,
2013-10-21 13:15:00,47.8,31.5,30.00,SW,219,5.0,8.0,53,0.00,,,0.00,Wunderground v.1.15,2013-10-21 18:15:00,
2013-10-21 13:20:00,48.3,31.0,30.00,NW,323,4.0,4.0,51,0.00,,,0.00,Wunderground v.1.15,2013-10-21 18:20:00,
2013-10-21 13:25:00,48.6,30.8,30.00,North,360,4.0,10.0,50,0.00,,,0.00,Wunderground v.1.15,2013-10-21 18:25:00,
2013-10-21 13:30:00,47.9,30.6,30.00,WNW,288,4.0,6.0,51,0.00,,,0.00,Wunderground v.1.15,2013-10-21 18:30:00,
2013-10-21 13:35:00,47.8,30.5,30.00,NNW,328,6.0,6.0,51,0.00,,,0.00,Wunderground v.1.15,2013-10-21 18:35:00,
2013-10-21 13:40:00,47.7,30.0,30.00,West,273,6.0,8.0,50,0.00,,,0.00,Wunderground v.1.15,2013-10-21 18:40:00,
2013-10-21 13:45:00,47.8,29.5,29.99,WNW,291,6.0,8.0,49,0.00,,,0.00,Wunderground v.1.15,2013-10-21 18:45:00,
2013-10-21 13:55:00,48.1,29.3,29.99,West,259,6.0,6.0,48,0.00,,,0.00,Wunderground v.1.15,2013-10-21 18:55:00,
2013-10-21 14:00:00,48.0,29.2,29.99,NW,307,6.0,6.0,48,0.00,,,0.00,Wunderground v.1.15,2013-10-21 19:00:00,
2013-10-21 14:05:00,48.1,29.3,29.99,WNW,285,6.0,6.0,48,0.00,,,0.00,Wunderground v.1.15,2013-10-21 19:05:00,
2013-10-21 14:10:00,48.3,29.0,29.99,NW,310,5.0,5.0,47,0.00,,,0.00,Wunderground v.1.15,2013-10-21 19:10:00,
2013-10-21 14:15:00,48.5,30.2,29.99,WSW,252,5.0,5.0,49,0.00,,,0.00,Wunderground v.1.15,2013-10-21 19:15:00,
2013-10-21 14:20:00,48.7,28.8,29.98,WSW,253,5.0,5.0,46,0.00,,,0.00,Wunderground v.1.15,2013-10-21 19:20:00,
2013-10-21 14:25:00,48.7,28.3,29.98,WNW,284,6.0,6.0,45,0.00,,,0.00,Wunderground v.1.15,2013-10-21 19:25:00,
2013-10-21 14:30:00,48.6,28.2,29.98,WNW,295,6.0,6.0,45,0.00,,,0.00,Wunderground v.1.15,2013-10-21 19:30:00,
2013-10-21 14:35:00,48.5,28.1,29.99,NNW,346,6.0,6.0,45,0.00,,,0.00,Wunderground v.1.15,2013-10-21 19:35:00,
2013-10-21 14:40:00,48.8,28.4,29.99,West,262,5.0,7.0,45,0.00,,,0.00,Wunderground v.1.15,2013-10-21 19:40:00,
2013-10-21 14:45:00,48.8,27.8,29.99,West,279,5.0,8.0,44,0.00,,,0.00,Wunderground v.1.15,2013-10-21 19:45:00,
2013-10-21 14:50:00,48.5,27.6,29.99,NE,44,6.0,6.0,44,0.00,,,0.00,Wunderground v.1.15,2013-10-21 19:50:00,
2013-10-21 14:55:00,48.5,28.1,29.99,WNW,300,5.0,6.0,45,0.00,,,0.00,Wunderground v.1.15,2013-10-21 19:55:00,
2013-10-21 15:00:00,48.5,27.6,29.99,NNE,18,5.0,8.0,44,0.00,,,0.00,Wunderground v.1.15,2013-10-21 20:00:00,
2013-10-21 15:05:00,48.0,27.1,29.99,WSW,257,6.0,8.0,44,0.00,,,0.00,Wunderground v.1.15,2013-10-21 20:05:00,
2013-10-21 15:10:00,48.2,27.3,29.99,West,271,6.0,6.0,44,0.00,,,0.00,Wunderground v.1.15,2013-10-21 20:10:00,
2013-10-21 15:15:00,48.2,26.7,29.99,WNW,290,6.0,6.0,43,0.00,,,0.00,Wunderground v.1.15,2013-10-21 20:15:00,
2013-10-21 15:20:00,48.2,26.7,29.99,WNW,290,6.0,9.0,43,0.00,,,0.00,Wunderground v.1.15,2013-10-21 20:20:00,
2013-10-21 15:25:00,48.1,27.2,29.99,SW,232,5.0,9.0,44,0.00,,,0.00,Wunderground v.1.15,2013-10-21 20:25:00,
2013-10-21 15:30:00,48.3,26.8,30.00,SW,229,5.0,5.0,43,0.00,,,0.00,Wunderground v.1.15,2013-10-21 20:30:00,
2013-10-21 15:35:00,48.3,26.8,30.00,WNW,284,4.0,5.0,43,0.00,,,0.00,Wunderground v.1.15,2013-10-21 20:35:00,
2013-10-21 15:40:00,48.1,26.1,30.00,West,265,4.0,7.0,42,0.00,,,0.00,Wunderground v.1.15,2013-10-21 20:40:00,
2013-10-21 15:45:00,47.9,26.5,30.00,NW,306,5.0,11.0,43,0.00,,,0.00,Wunderground v.1.15,2013-10-21 20:45:00,
2013-10-21 15:50:00,47.6,25.6,30.00,WNW,295,6.0,6.0,42,0.00,,,0.00,Wunderground v.1.15,2013-10-21 20:50:00,
2013-10-21 15:55:00,47.6,26.7,30.00,NNW,339,6.0,6.0,44,0.00,,,0.00,Wunderground v.1.15,2013-10-21 20:55:00,
2013-10-21 16:00:00,47.8,26.4,30.00,West,280,4.0,8.0,43,0.00,,,0.00,Wunderground v.1.15,2013-10-21 21:00:00,
2013-10-21 16:05:00,47.4,25.4,30.00,NNW,336,5.0,8.0,42,0.00,,,0.00,Wunderground v.1.15,2013-10-21 21:05:00,
2013-10-21 16:10:00,47.3,25.9,30.00,SW,221,6.0,8.0,43,0.00,,,0.00,Wunderground v.1.15,2013-10-21 21:10:00,
2013-10-21 16:15:00,47.6,26.2,30.00,WNW,289,5.0,8.0,43,0.00,,,0.00,Wunderground v.1.15,2013-10-21 21:15:00,
2013-10-21 16:20:00,47.5,25.5,30.00,North,5,5.0,5.0,42,0.00,,,0.00,Wunderground v.1.15,2013-10-21 21:20:00,
2013-10-21 16:25:00,47.4,25.4,30.00,South,179,5.0,5.0,42,0.00,,,0.00,Wunderground v.1.15,2013-10-21 21:25:00,
2013-10-21 16:30:00,47.5,26.1,30.01,SW,225,5.0,8.0,43,0.00,,,0.00,Wunderground v.1.15,2013-10-21 21:30:00,
2013-10-21 16:35:00,47.7,26.3,30.01,West,267,4.0,8.0,43,0.00,,,0.00,Wunderground v.1.15,2013-10-21 21:35:00,
2013-10-21 16:40:00,47.7,25.7,30.01,WNW,300,4.0,4.0,42,0.00,,,0.00,Wunderground v.1.15,2013-10-21 21:40:00,
2013-10-21 16:45:00,47.5,26.1,30.01,WNW,302,4.0,6.0,43,0.00,,,0.00,Wunderground v.1.15,2013-10-21 21:45:00,
2013-10-21 16:50:00,47.3,25.3,30.01,NW,321,4.0,4.0,42,0.00,,,0.00,Wunderground v.1.15,2013-10-21 21:50:00,
2013-10-21 16:55:00,47.0,26.2,30.01,West,280,5.0,6.0,44,0.00,,,0.00,Wunderground v.1.15,2013-10-21 21:55:00,
2013-10-21 17:00:00,46.7,25.4,30.01,NW,324,5.0,6.0,43,0.00,,,0.00,Wunderground v.1.15,2013-10-21 22:00:00,
2013-10-21 17:05:00,46.4,25.1,30.01,North,11,5.0,6.0,43,0.00,,,0.00,Wunderground v.1.15,2013-10-21 22:05:00,
2013-10-21 17:10:00,46.2,25.5,30.01,NNW,347,5.0,5.0,44,0.00,,,0.00,Wunderground v.1.15,2013-10-21 22:10:00,
2013-10-21 17:15:00,46.1,25.4,30.02,SW,218,5.0,6.0,44,0.00,,,0.00,Wunderground v.1.15,2013-10-21 22:15:00,
2013-10-21 17:20:00,45.8,25.1,30.01,West,281,5.0,5.0,44,0.00,,,0.00,Wunderground v.1.15,2013-10-21 22:20:00,
2013-10-21 17:25:00,45.7,25.0,30.02,WNW,287,5.0,5.0,44,0.00,,,0.00,Wunderground v.1.15,2013-10-21 22:25:00,
2013-10-21 17:30:00,45.6,25.5,30.02,North,5,4.0,4.0,45,0.00,,,0.00,Wunderground v.1.15,2013-10-21 22:30:00,
2013-10-21 17:40:00,45.3,25.7,30.02,NW,318,2.0,2.0,46,0.00,,,0.00,Wunderground v.1.15,2013-10-21 22:40:00,
2013-10-21 17:45:00,45.1,25.5,30.02,West,263,3.0,3.0,46,0.00,,,0.00,Wunderground v.1.15,2013-10-21 22:45:00,
2013-10-21 17:50:00,44.9,25.9,30.02,West,279,3.0,3.0,47,0.00,,,0.00,Wunderground v.1.15,2013-10-21 22:50:00,
2013-10-21 17:55:00,44.6,26.1,30.02,NNW,336,2.0,3.0,48,0.00,,,0.00,Wunderground v.1.15,2013-10-21 22:55:00,
2013-10-21 18:00:00,44.3,25.8,30.02,WNW,302,2.0,2.0,48,0.00,,,0.00,Wunderground v.1.15,2013-10-21 23:00:00,
2013-10-21 18:05:00,44.0,26.0,30.02,WNW,284,2.0,2.0,49,0.00,,,0.00,Wunderground v.1.15,2013-10-21 23:05:00,
2013-10-21 18:10:00,43.7,26.3,30.02,NW,316,2.0,2.0,50,0.00,,,0.00,Wunderground v.1.15,2013-10-21 23:10:00,
2013-10-21 18:15:00,43.4,26.0,30.03,NNW,346,1.0,2.0,50,0.00,,,0.00,Wunderground v.1.15,2013-10-21 23:15:00,
2013-10-21 18:20:00,43.1,26.2,30.03,NNW,336,1.0,1.0,51,0.00,,,0.00,Wunderground v.1.15,2013-10-21 23:20:00,
2013-10-21 18:25:00,42.7,26.3,30.03,NW,323,1.0,1.0,52,0.00,,,0.00,Wunderground v.1.15,2013-10-21 23:25:00,
2013-10-21 18:26:00,42.7,26.3,30.03,NW,315,0.0,-999.0,52,0.00,,,0.00,Wunderground v.1.15,2013-10-21 23:26:00,
2013-10-21 18:30:00,42.3,25.9,30.03,WNW,295,0.0,1.0,52,0.00,,,0.00,Wunderground v.1.15,2013-10-21 23:30:00,
2013-10-21 18:31:00,42.4,26.0,30.03,N/A,-737280,0.0,-999.0,52,0.00,,,0.00,Wunderground v.1.15,2013-10-21 23:31:00,
2013-10-21 18:35:00,42.0,26.1,30.03,NW,307,0.0,1.0,53,0.00,,,0.00,Wunderground v.1.15,2013-10-21 23:35:00,
2013-10-21 18:36:00,42.1,26.2,30.03,N/A,-737280,0.0,-999.0,53,0.00,,,0.00,Wunderground v.1.15,2013-10-21 23:36:00,
2013-10-21 18:40:00,41.7,26.3,30.03,NW,310,0.0,0.0,54,0.00,,,0.00,Wunderground v.1.15,2013-10-21 23:40:00,
2013-10-21 18:41:00,41.7,26.3,30.03,N/A,-737280,0.0,-999.0,54,0.00,,,0.00,Wunderground v.1.15,2013-10-21 23:41:00,
2013-10-21 18:45:00,41.4,26.4,30.02,NW,310,0.0,0.0,55,0.00,,,0.00,Wunderground v.1.15,2013-10-21 23:45:00,
2013-10-21 18:46:00,41.4,26.4,30.02,N/A,-737280,0.0,-999.0,55,0.00,,,0.00,Wunderground v.1.15,2013-10-21 23:46:00,
2013-10-21 18:50:00,41.2,26.7,30.02,NW,311,0.0,0.0,56,0.00,,,0.00,Wunderground v.1.15,2013-10-21 23:50:00,
2013-10-21 18:51:00,41.2,26.7,30.02,N/A,-737280,0.0,-999.0,56,0.00,,,0.00,Wunderground v.1.15,2013-10-21 23:51:00,
2013-10-21 18:55:00,41.0,26.5,30.02,NW,310,0.0,0.0,56,0.00,,,0.00,Wunderground v.1.15,2013-10-21 23:55:00,
2013-10-21 18:56:00,41.0,26.5,30.02,N/A,-737280,0.0,-999.0,56,0.00,,,0.00,Wunderground v.1.15,2013-10-21 23:56:00,
2013-10-21 19:00:00,40.7,27.1,30.03,NW,311,0.0,0.0,58,0.00,,,0.00,Wunderground v.1.15,2013-10-22 00:00:00,
2013-10-21 19:01:00,40.7,27.1,30.03,N/A,-737280,0.0,-999.0,58,0.00,,,0.00,Wunderground v.1.15,2013-10-22 00:01:00,
2013-10-21 19:05:00,40.4,26.4,30.02,NW,311,0.0,0.0,57,0.00,,,0.00,Wunderground v.1.15,2013-10-22 00:05:00,
2013-10-21 19:06:00,40.4,26.4,30.02,N/A,-737280,0.0,-999.0,57,0.00,,,0.00,Wunderground v.1.15,2013-10-22 00:06:00,
2013-10-21 19:10:00,40.0,26.8,30.02,NW,310,0.0,0.0,59,0.00,,,0.00,Wunderground v.1.15,2013-10-22 00:10:00,
2013-10-21 19:11:00,40.0,26.8,30.02,N/A,-737280,0.0,-999.0,59,0.00,,,0.00,Wunderground v.1.15,2013-10-22 00:11:00,
2013-10-21 19:15:00,39.5,26.8,30.02,NW,311,0.0,0.0,60,0.00,,,0.00,Wunderground v.1.15,2013-10-22 00:15:00,
2013-10-21 19:16:00,39.5,26.8,30.02,N/A,-737280,0.0,-999.0,60,0.00,,,0.00,Wunderground v.1.15,2013-10-22 00:16:00,
2013-10-21 19:20:00,38.6,26.7,30.02,NW,309,0.0,0.0,62,0.00,,,0.00,Wunderground v.1.15,2013-10-22 00:20:00,
2013-10-21 19:21:00,38.6,26.7,30.02,N/A,-737280,0.0,-999.0,62,0.00,,,0.00,Wunderground v.1.15,2013-10-22 00:21:00,
2013-10-21 19:25:00,37.9,26.4,30.02,WNW,297,1.0,1.0,63,0.00,,,0.00,Wunderground v.1.15,2013-10-22 00:25:00,
2013-10-21 19:26:00,37.9,26.4,30.03,WNW,293,1.0,-999.0,63,0.00,,,0.00,Wunderground v.1.15,2013-10-22 00:26:00,
2013-10-21 19:30:00,37.5,26.4,30.02,WNW,296,1.0,1.0,64,0.00,,,0.00,Wunderground v.1.15,2013-10-22 00:30:00,
2013-10-21 19:31:00,37.5,26.4,30.02,N/A,-737280,0.0,-999.0,64,0.00,,,0.00,Wunderground v.1.15,2013-10-22 00:31:00,
2013-10-21 19:35:00,37.5,26.4,30.02,WNW,297,0.0,1.0,64,0.00,,,0.00,Wunderground v.1.15,2013-10-22 00:35:00,
2013-10-21 19:36:00,37.5,26.4,30.02,N/A,-737280,0.0,-999.0,64,0.00,,,0.00,Wunderground v.1.15,2013-10-22 00:36:00,
2013-10-21 19:40:00,37.5,26.0,30.02,WNW,297,0.0,0.0,63,0.00,,,0.00,Wunderground v.1.15,2013-10-22 00:40:00,
2013-10-21 19:41:00,37.5,26.0,30.02,N/A,-737280,0.0,-999.0,63,0.00,,,0.00,Wunderground v.1.15,2013-10-22 00:41:00,
2013-10-21 19:45:00,37.5,26.0,30.02,WNW,297,0.0,0.0,63,0.00,,,0.00,Wunderground v.1.15,2013-10-22 00:45:00,
2013-10-21 19:46:00,37.5,26.0,30.02,N/A,-737280,0.0,-999.0,63,0.00,,,0.00,Wunderground v.1.15,2013-10-22 00:46:00,
2013-10-21 19:50:00,37.3,26.6,30.03,WNW,296,0.0,0.0,65,0.00,,,0.00,Wunderground v.1.15,2013-10-22 00:50:00,
2013-10-21 19:51:00,37.3,26.6,30.03,N/A,-737280,0.0,-999.0,65,0.00,,,0.00,Wunderground v.1.15,2013-10-22 00:51:00,
2013-10-21 19:55:00,37.1,26.4,30.02,WNW,297,0.0,0.0,65,0.00,,,0.00,Wunderground v.1.15,2013-10-22 00:55:00,
2013-10-21 19:56:00,37.1,26.4,30.02,N/A,-737280,0.0,-999.0,65,0.00,,,0.00,Wunderground v.1.15,2013-10-22 00:56:00,
2013-10-21 20:00:00,37.1,26.4,30.03,WNW,297,0.0,0.0,65,0.00,,,0.00,Wunderground v.1.15,2013-10-22 01:00:00,
2013-10-21 20:01:00,37.1,26.4,30.03,N/A,-737280,0.0,-999.0,65,0.00,,,0.00,Wunderground v.1.15,2013-10-22 01:01:00,
2013-10-21 20:05:00,37.0,26.7,30.02,WNW,297,0.0,0.0,66,0.00,,,0.00,Wunderground v.1.15,2013-10-22 01:05:00,
2013-10-21 20:06:00,37.1,26.4,30.03,N/A,-737280,0.0,-999.0,65,0.00,,,0.00,Wunderground v.1.15,2013-10-22 01:06:00,
2013-10-21 20:11:00,36.9,26.2,30.02,N/A,-737280,0.0,-999.0,65,0.00,,,0.00,Wunderground v.1.15,2013-10-22 01:11:00,
2013-10-21 20:15:00,37.0,26.3,30.03,WNW,296,0.0,0.0,65,0.00,,,0.00,Wunderground v.1.15,2013-10-22 01:15:00,
2013-10-21 20:16:00,37.0,26.3,30.03,N/A,-737280,0.0,-999.0,65,0.00,,,0.00,Wunderground v.1.15,2013-10-22 01:16:00,
2013-10-21 20:20:00,37.1,26.4,30.03,WNW,297,0.0,0.0,65,0.00,,,0.00,Wunderground v.1.15,2013-10-22 01:20:00,
2013-10-21 20:21:00,37.1,26.4,30.03,N/A,-737280,0.0,-999.0,65,0.00,,,0.00,Wunderground v.1.15,2013-10-22 01:21:00,
2013-10-21 20:25:00,37.2,26.5,30.03,WNW,296,0.0,0.0,65,0.00,,,0.00,Wunderground v.1.15,2013-10-22 01:25:00,
2013-10-21 20:26:00,37.2,26.5,30.03,N/A,-737280,0.0,-999.0,65,0.00,,,0.00,Wunderground v.1.15,2013-10-22 01:26:00,
2013-10-21 20:30:00,37.1,26.4,30.03,WNW,297,0.0,0.0,65,0.00,,,0.00,Wunderground v.1.15,2013-10-22 01:30:00,
2013-10-21 20:31:00,37.1,26.4,30.03,N/A,-737280,0.0,-999.0,65,0.00,,,0.00,Wunderground v.1.15,2013-10-22 01:31:00,
2013-10-21 20:35:00,37.1,26.4,30.02,WNW,297,0.0,0.0,65,0.00,,,0.00,Wunderground v.1.15,2013-10-22 01:35:00,
2013-10-21 20:36:00,37.1,26.4,30.02,N/A,-737280,0.0,-999.0,65,0.00,,,0.00,Wunderground v.1.15,2013-10-22 01:36:00,
2013-10-21 20:40:00,37.1,26.4,30.02,WNW,297,0.0,0.0,65,0.00,,,0.00,Wunderground v.1.15,2013-10-22 01:40:00,
2013-10-21 20:41:00,37.1,26.4,30.02,WNW,293,0.0,-999.0,65,0.00,,,0.00,Wunderground v.1.15,2013-10-22 01:41:00,
2013-10-21 20:45:00,38.2,28.6,30.03,NW,319,0.0,0.0,68,0.00,,,0.00,Wunderground v.1.15,2013-10-22 01:45:00,
2013-10-21 20:46:00,38.2,28.6,30.03,N/A,-737280,0.0,-999.0,68,0.00,,,0.00,Wunderground v.1.15,2013-10-22 01:46:00,
2013-10-21 20:50:00,38.9,28.1,30.02,NW,318,0.0,0.0,65,0.00,,,0.00,Wunderground v.1.15,2013-10-22 01:50:00,
2013-10-21 20:51:00,38.9,28.1,30.02,N/A,-737280,0.0,-999.0,65,0.00,,,0.00,Wunderground v.1.15,2013-10-22 01:51:00,
2013-10-21 20:55:00,39.2,28.0,30.03,NW,315,0.0,0.0,64,0.00,,,0.00,Wunderground v.1.15,2013-10-22 01:55:00,
2013-10-21 20:56:00,39.2,28.0,30.03,N/A,-737280,0.0,-999.0,64,0.00,,,0.00,Wunderground v.1.15,2013-10-22 01:56:00,
2013-10-21 21:00:00,38.6,26.7,30.03,NW,314,0.0,0.0,62,0.00,,,0.00,Wunderground v.1.15,2013-10-22 02:00:00,
2013-10-21 21:01:00,38.7,26.8,30.03,N/A,-737280,0.0,-999.0,62,0.00,,,0.00,Wunderground v.1.15,2013-10-22 02:01:00,
2013-10-21 21:05:00,38.1,26.2,30.03,NW,315,0.0,0.0,62,0.00,,,0.00,Wunderground v.1.15,2013-10-22 02:05:00,
2013-10-21 21:06:00,38.1,26.2,30.03,N/A,-737280,0.0,-999.0,62,0.00,,,0.00,Wunderground v.1.15,2013-10-22 02:06:00,
2013-10-21 21:10:00,37.6,26.5,30.03,NW,314,0.0,0.0,64,0.00,,,0.00,Wunderground v.1.15,2013-10-22 02:10:00,
2013-10-21 21:11:00,37.6,26.5,30.03,N/A,-737280,0.0,-999.0,64,0.00,,,0.00,Wunderground v.1.15,2013-10-22 02:11:00,
2013-10-21 21:15:00,37.5,26.4,30.03,NW,311,0.0,0.0,64,0.00,,,0.00,Wunderground v.1.15,2013-10-22 02:15:00,
2013-10-21 21:16:00,37.5,26.4,30.03,N/A,-737280,0.0,-999.0,64,0.00,,,0.00,Wunderground v.1.15,2013-10-22 02:16:00,
2013-10-21 21:20:00,37.3,26.2,30.03,West,274,0.0,0.0,64,0.00,,,0.00,Wunderground v.1.15,2013-10-22 02:20:00,
2013-10-21 21:21:00,37.3,26.2,30.03,N/A,-737280,0.0,-999.0,64,0.00,,,0.00,Wunderground v.1.15,2013-10-22 02:21:00,
2013-10-21 21:25:00,37.0,26.3,30.03,West,274,0.0,0.0,65,0.00,,,0.00,Wunderground v.1.15,2013-10-22 02:25:00,
2013-10-21 21:26:00,37.0,26.3,30.03,N/A,-737280,0.0,-999.0,65,0.00,,,0.00,Wunderground v.1.15,2013-10-22 02:26:00,
2013-10-21 21:30:00,36.8,26.1,30.03,West,274,0.0,0.0,65,0.00,,,0.00,Wunderground v.1.15,2013-10-22 02:30:00,
2013-10-21 21:31:00,36.8,26.1,30.03,N/A,-737280,0.0,-999.0,65,0.00,,,0.00,Wunderground v.1.15,2013-10-22 02:31:00,
2013-10-21 21:35:00,37.0,26.3,30.03,West,275,0.0,0.0,65,0.00,,,0.00,Wunderground v.1.15,2013-10-22 02:35:00,
2013-10-21 21:36:00,37.0,26.3,30.03,N/A,-737280,0.0,-999.0,65,0.00,,,0.00,Wunderground v.1.15,2013-10-22 02:36:00,
2013-10-21 21:40:00,37.1,26.4,30.03,West,275,0.0,0.0,65,0.00,,,0.00,Wunderground v.1.15,2013-10-22 02:40:00,
2013-10-21 21:41:00,37.1,26.4,30.03,N/A,-737280,0.0,-999.0,65,0.00,,,0.00,Wunderground v.1.15,2013-10-22 02:41:00,
2013-10-21 21:45:00,37.0,26.7,30.03,West,274,0.0,0.0,66,0.00,,,0.00,Wunderground v.1.15,2013-10-22 02:45:00,
2013-10-21 21:46:00,37.0,26.7,30.03,N/A,-737280,0.0,-999.0,66,0.00,,,0.00,Wunderground v.1.15,2013-10-22 02:46:00,
2013-10-21 21:50:00,36.7,26.8,30.03,SW,226,0.0,0.0,67,0.00,,,0.00,Wunderground v.1.15,2013-10-22 02:50:00,
2013-10-21 21:51:00,36.7,26.8,30.03,N/A,-737280,0.0,-999.0,67,0.00,,,0.00,Wunderground v.1.15,2013-10-22 02:51:00,
2013-10-21 21:56:00,36.7,26.8,30.03,N/A,-737280,0.0,-999.0,67,0.00,,,0.00,Wunderground v.1.15,2013-10-22 02:56:00,
2013-10-21 22:01:00,36.6,26.7,30.03,SW,225,2.0,-999.0,67,0.00,,,0.00,Wunderground v.1.15,2013-10-22 03:01:00,
2013-10-21 22:06:00,36.2,26.6,30.03,SW,225,2.0,-999.0,68,0.00,,,0.00,Wunderground v.1.15,2013-10-22 03:06:00,
2013-10-21 22:11:00,36.2,26.6,30.03,SW,225,1.0,-999.0,68,0.00,,,0.00,Wunderground v.1.15,2013-10-22 03:11:00,
2013-10-21 22:16:00,36.2,27.0,30.03,SW,225,0.0,-999.0,69,0.00,,,0.00,Wunderground v.1.15,2013-10-22 03:16:00,
2013-10-21 22:21:00,36.0,26.8,30.03,SW,225,1.0,-999.0,69,0.00,,,0.00,Wunderground v.1.15,2013-10-22 03:21:00,
2013-10-21 22:26:00,35.6,26.8,30.03,SSW,203,1.0,-999.0,70,0.00,,,0.00,Wunderground v.1.15,2013-10-22 03:26:00,
2013-10-21 22:31:00,35.5,27.0,30.03,SW,225,1.0,-999.0,71,0.00,,,0.00,Wunderground v.1.15,2013-10-22 03:31:00,
2013-10-21 22:36:00,35.6,27.1,30.03,SSW,203,1.0,-999.0,71,0.00,,,0.00,Wunderground v.1.15,2013-10-22 03:36:00,
2013-10-21 22:41:00,35.6,26.8,30.03,SW,225,0.0,-999.0,70,0.00,,,0.00,Wunderground v.1.15,2013-10-22 03:41:00,
2013-10-21 22:46:00,35.9,27.1,30.03,SW,225,1.0,-999.0,70,0.00,,,0.00,Wunderground v.1.15,2013-10-22 03:46:00,
2013-10-21 22:51:00,35.9,27.1,30.03,SW,225,0.0,-999.0,70,0.00,,,0.00,Wunderground v.1.15,2013-10-22 03:51:00,
2013-10-21 22:56:00,35.6,27.1,30.04,N/A,-737280,0.0,-999.0,71,0.00,,,0.00,Wunderground v.1.15,2013-10-22 03:56:00,
2013-10-21 23:01:00,35.2,27.1,30.04,N/A,-737280,0.0,-999.0,72,0.00,,,0.00,Wunderground v.1.15,2013-10-22 04:01:00,
2013-10-21 23:06:00,34.9,27.1,30.04,N/A,-737280,0.0,-999.0,73,0.00,,,0.00,Wunderground v.1.15,2013-10-22 04:06:00,
2013-10-21 23:11:00,34.7,27.3,30.03,N/A,-737280,0.0,-999.0,74,0.00,,,0.00,Wunderground v.1.15,2013-10-22 04:11:00,
2013-10-21 23:16:00,34.6,27.2,30.03,N/A,-737280,0.0,-999.0,74,0.00,,,0.00,Wunderground v.1.15,2013-10-22 04:16:00,
2013-10-21 23:21:00,34.5,27.1,30.03,N/A,-737280,0.0,-999.0,74,0.00,,,0.00,Wunderground v.1.15,2013-10-22 04:21:00,
2013-10-21 23:26:00,34.5,27.4,30.03,SW,225,0.0,-999.0,75,0.00,,,0.00,Wunderground v.1.15,2013-10-22 04:26:00,
2013-10-21 23:31:00,34.7,27.6,30.03,SW,225,0.0,-999.0,75,0.00,,,0.00,Wunderground v.1.15,2013-10-22 04:31:00,
2013-10-21 23:36:00,34.7,27.3,30.03,N/A,-737280,0.0,-999.0,74,0.00,,,0.00,Wunderground v.1.15,2013-10-22 04:36:00,
2013-10-21 23:41:00,34.5,27.4,30.02,N/A,-737280,0.0,-999.0,75,0.00,,,0.00,Wunderground v.1.15,2013-10-22 04:41:00,
2013-10-21 23:46:00,34.2,27.1,30.03,N/A,-737280,0.0,-999.0,75,0.00,,,0.00,Wunderground v.1.15,2013-10-22 04:46:00,
2013-10-21 23:51:00,33.9,26.8,30.02,N/A,-737280,0.0,-999.0,75,0.00,,,0.00,Wunderground v.1.15,2013-10-22 04:51:00,
2013-10-21 23:56:00,33.6,26.8,30.03,N/A,-737280,0.0,-999.0,76,0.00,,,0.00,Wunderground v.1.15,2013-10-22 04:56:00,